Regional Weather Roundup
Issued by NWS

Home | Current Version | Previous Version | Graphics & Text | Print | Product List | Glossary On
Versions: 1 2 3 4 5 6 7 8 9 10 11 12 13 14 15 16 17 18 19 20 21 22 23 24 25 26 27 28 29 30 31 32 33 34 35 36 37 38 39 40 41 42 43 44 45 46 47 48 49 50
000
ASUS45 KBOU 242110
RWRCO

WEATHER ROUNDUP FOR COLORADO
NATIONAL WEATHER SERVICE DENVER/BOULDER CO
200 PM MST FRI NOV 24 2017

NOTE: "FAIR" INDICATES FEW OR NO CLOUDS BELOW 12000 FEET WITH NO
SIGNIFICANT WEATHER AND/OR OBSTRUCTIONS TO VISIBILITY.

COZ001>005-013-030-031-242200-
...NORTHWEST COLORADO...

CITY           SKY/WX    TMP DP  RH WIND       PRES   REMARKS
CRAIG          PTSUNNY   57  29  34 W20G26    29.99R
HAYDEN         PTSUNNY   54  32  43 NW18G24   30.01R
MEEKER         FAIR      62  23  22 W18G37    30.00R
RABBIT EARS PA CLOUDY    36  30  80 NW8G18    30.11F
STEAMBOAT SPGS FAIR      53  32  44 W16G22    29.99F
WALDEN         CLOUDY    43  30  61 W14       30.05R
$$

COZ006>008-011-242200-
...WEST CENTRAL VALLEYS...

CITY           SKY/WX    TMP DP  RH WIND       PRES   REMARKS
GRAND JUNCTION FAIR      60  34  37 CALM      29.99F
MONTROSE       FAIR      60  27  28 CALM      30.04S
EAGLE          FAIR      58  28  32 W25       30.02F
RIFLE          FAIR      55  36  48 CALM      29.99F
DELTA          FAIR      65  32  29 SW10      30.01S
NUCLA          FAIR      64  27  24 NW8       30.07F
$$

COZ017>023-064>068-242200-
...SOUTHWEST COLORADO...

CITY           SKY/WX    TMP DP  RH WIND       PRES   REMARKS
DURANGO        FAIR      63  28  26 SW15      30.04F
CORTEZ         FAIR      64  26  23 NW5       30.05F
PAGOSA SPRINGS FAIR      59  22  24 SW10      30.09F
TELLURIDE      FAIR      55  23  28 W17G28    30.20R
WOLF CREEK PAS FAIR      37  21  52 SW13G18   30.32S
$$

COZ009-010-012-014-032>034-037-058>063-242200-
...CENTRAL COLORADO...

CITY           SKY/WX    TMP DP  RH WIND       PRES   REMARKS
ASPEN          FAIR      51  28  41 CALM      30.06F
BUENA VISTA    FAIR      58  17  20 W15G26    30.04S
COPPER MTN     PTSUNNY   37  23  56 W28G38    30.19F
BERTHOUD PASS  PTSUNNY   28  18  64 NW46G71   30.12F HAZE    WCI  10
COTTONWOOD PAS FAIR      52  19  28 W13G26    30.12S
GUNNISON       FAIR      45  27  49 S3        30.11S
KREMMLING      PTSUNNY   61  23  23 W29G36    30.01F
LEADVILLE      FAIR      42  20  41 W17G28    30.13F
MONARCH PASS   CLOUDY    34  19  55 W37G46    30.32S WCI  19
SALIDA         FAIR      62  18  18 W22       30.11R
SUNLIGHT       FAIR      41  25  52 SW16G30   30.19F
WILKERSON PASS PTSUNNY   41  19  42 W9G16     30.21S
$$

COZ069>075-242200-
...SAN LUIS VALLEY/SANGRE DE CRISTO MOUNTAINS...

CITY           SKY/WX    TMP DP  RH WIND       PRES   REMARKS
ALAMOSA        FAIR      63  19  18 CALM      30.00F
DEL NORTE      FAIR      59  27  29 SE9       30.02F
LA VETA PASS   FAIR      54  19  26 S16G28      N/A
SAGUACHE       FAIR      63  21  20 NW24G38   30.05R
$$

COZ035-036-038>040-242200-
...NORTHERN COLORADO FRONT RANGE...

CITY           SKY/WX    TMP DP  RH WIND       PRES   REMARKS
DENVER INTL AP FAIR      69  27  20 SW26G35   29.84F
DMNS CITY PARK   N/A     67  26  21 W12G22    29.87S
AURORA         MOSUNNY   67  28  23 W20G28    29.89R
FRONT RANGE AP PTSUNNY   72  27  18 W24G35    29.87S
ERIE MUNI ARPT FAIR      71  20  14 W15G23    29.89F
BOULDER MUN AP FAIR      68  27  21 W7        29.86R
CENTENNIAL     FAIR      65  29  25 NW17G30   29.90S
BROOMFIELD     PTSUNNY   68  28  22 SW15      29.89S
FORT COLLINS   FAIR      68  23  18 W21G32    29.84S
LONGMONT       FAIR      74  22  14 W20       29.85R
$$

COZ041-046-047-076>085-087-088-242200-
...PIKES PEAK/PALMER DIVIDE AND SOUTHERN FOOTHILLS...

CITY           SKY/WX    TMP DP  RH WIND       PRES   REMARKS
COLO. SPRINGS  FAIR      73  22  14 NW13      29.89S
A. F. ACADEMY  FAIR      67  21  17 NW13      29.90R
SCHRIEVER AFB  FAIR      70  21  16 E13       29.90R
CHEYENNE MTN   FAIR      66  19  16 CALM      29.88S
ELLICOTT         N/A    N/A N/A N/A E10       29.88R
FALCON         FAIR      64  18  17 NE15G21   29.94R
FORT CARSON    FAIR      74  18  12 SE3       29.85F
LIMON          PTSUNNY   68  24  19 N12       29.86S
MONUMENT HILL  CLOUDY    59  25  27 N13G21    29.97R
CANON CITY     FAIR      75  21  13 W24G36    29.85R
WALSENBURG     FAIR      79  21  11 W14G20    29.88S
TRINIDAD       FAIR      74  19  12 VRB3      29.85F
$$

COZ042>045-048>051-090-091-242200-
...NORTHEAST COLORADO...

CITY           SKY/WX    TMP DP  RH WIND       PRES   REMARKS
GREELEY ARPT   FAIR      65  34  31 NE22G29   29.85R
AKRON          FAIR      62  32  32 N25G31    29.85S
BURLINGTON     FAIR      69  31  24 N14G21    29.82R
WRAY           NOT AVBL
YUMA           FAIR      63  18  17 N18G31    29.83R
STERLING       FAIR      61  36  39 NE18G25   29.85R
HOLYOKE        FAIR      64  32  29 N22G32    29.83S
FORT MORGAN    FAIR      62  31  31 NE22G32   29.86R
$$

COZ086-089-092>099-242200-
...SOUTHEAST COLORADO...

CITY           SKY/WX    TMP DP  RH WIND       PRES   REMARKS
PUEBLO         FAIR      78  21  12 N13G23    29.78S
LA JUNTA       FAIR      77  22  13 W7        29.77S
LAMAR          FAIR      78  24  13 NW9       29.73S
SPRINGFIELD      N/A     75  20  12 NW16      29.77S
$$



USA.gov is the U.S. government's official web portal to all federal, state and local government web resources and services.